Location: Chenereilles
(45.4866°N, 4.0790°E)
Time: 05:48:02
(UTC+00:00)

USA 229 DEB - Pass Details

Date: 12 November 2019
Orbit: 997 x 1215 km, 63.4° (Epoch: 02 December)

Event Time Altitude Azimuth Distance (km) Brightness Sun altitude
Rises 18:24:35 0° 221° (SW) 3,721 7.2 -22.4°
Reaches altitude 10° 18:27:08 10° 223° (SW) 2,789 6.5 -22.9°
Maximum altitude 18:33:42 77° 310° (NW) 1,071 3.7 -24.0°
Enters shadow 18:37:27 29° 32° (NNE) 1,840 4.6 -24.7°
